User: anonymous   Login
Location: �clusier
(49.9361°N, 2.7869°E)
Time: 22:58:13
(UTC+00:00)
Language:

Meteor 2-5 Rocket - Orbit

View from above orbital plane
View from above orbital plane
View from above satellite
View from above satellite

Ground track
Ground track

The orbit data is extracted from the following two-line orbital elements,

1 11608U 79095B   21262.42022724  .00000187  00000-0  10448-3 0  9998
2 11608  81.2136 141.7195 0055038 113.1966 247.5013 14.06179157148405
Epoch (UTC): 19 September 2021 10:05:07
Eccentricity: 0.0055038
inclination: 81.2136°
perigee height: 832 km
apogee height: 912 km
right ascension of ascending node: 141.7195°
argument of perigee: 113.1966°
revolutions per day: 14.06179157
mean anomaly at epoch: 247.5013°
orbit number at epoch: 14840

The dashed part of the orbit path shows where the satellite is in the earth's shadow,  

DLR